Time,TemperatureF,DewpointF,PressureIn,WindDirection,WindDirectionDegrees,WindSpeedMPH,WindSpeedGustMPH,Humidity,HourlyPrecipIn,Conditions,Clouds,dailyrainin,SoftwareType,DateUTC
2013-04-02 00:00:00,32.0,15.0,29.90,NNE,28,3.4,3.4,49,0.00,CLR,SKC,0.04,WeatherDisplay:10.37,2013-04-02 04:00:00,
2013-04-02 00:05:00,32.0,15.0,29.90,NNE,28,1.1,0.0,49,0.00,CLR,SKC,0.00,WeatherDisplay:10.37,2013-04-02 04:05:00,
2013-04-02 00:10:00,32.0,15.0,29.90,NNE,28,0.0,0.0,49,0.00,CLR,SKC,0.00,WeatherDisplay:10.37,2013-04-02 04:10:00,
2013-04-02 00:15:00,31.9,14.9,29.90,NNE,28,0.0,0.0,49,0.00,CLR,SKC,0.00,WeatherDisplay:10.37,2013-04-02 04:15:00,
2013-04-02 00:20:00,31.7,15.2,29.90,NNE,28,0.0,0.0,50,0.00,CLR,SKC,0.00,WeatherDisplay:10.37,2013-04-02 04:20:00,
2013-04-02 00:25:00,31.5,15.0,29.90,NNE,28,0.0,0.0,50,0.00,CLR,SKC,0.00,WeatherDisplay:10.37,2013-04-02 04:25:00,
2013-04-02 00:30:00,31.3,14.8,29.90,NNE,28,0.0,0.0,50,0.00,CLR,SKC,0.00,WeatherDisplay:10.37,2013-04-02 04:30:00,
2013-04-02 00:35:00,31.1,15.5,29.90,NNE,28,0.0,0.0,52,0.00,CLR,SKC,0.00,WeatherDisplay:10.37,2013-04-02 04:35:00,
2013-04-02 00:40:00,31.0,15.0,29.91,NNE,28,0.0,0.0,51,0.00,CLR,SKC,0.00,WeatherDisplay:10.37,2013-04-02 04:40:00,
2013-04-02 00:45:00,30.8,14.8,29.91,NNE,28,0.0,0.0,51,0.00,CLR,SKC,0.00,WeatherDisplay:10.37,2013-04-02 04:45:00,
2013-04-02 00:50:00,30.7,15.1,29.91,NNE,28,0.0,0.0,52,0.00,CLR,SKC,0.00,WeatherDisplay:10.37,2013-04-02 04:50:00,
2013-04-02 00:55:00,30.5,15.4,29.91,NNE,28,0.0,0.0,53,0.00,CLR,SKC,0.00,WeatherDisplay:10.37,2013-04-02 04:55:00,
2013-04-02 01:00:00,30.2,15.1,29.91,NNE,28,0.0,0.0,53,0.00,CLR,SKC,0.00,WeatherDisplay:10.37,2013-04-02 05:00:00,
2013-04-02 01:05:00,30.0,15.3,29.91,NNE,28,0.0,0.0,54,0.00,CLR,SKC,0.00,WeatherDisplay:10.37,2013-04-02 05:05:00,
2013-04-02 01:10:00,29.7,15.5,29.91,NNE,28,0.0,0.0,55,0.00,CLR,SKC,0.00,WeatherDisplay:10.37,2013-04-02 05:10:00,
2013-04-02 01:15:00,29.5,15.7,29.91,NNE,28,0.0,0.0,56,0.00,CLR,SKC,0.00,WeatherDisplay:10.37,2013-04-02 05:15:00,
2013-04-02 01:20:00,29.3,15.5,29.91,NNE,28,0.0,0.0,56,0.00,CLR,SKC,0.00,WeatherDisplay:10.37,2013-04-02 05:20:00,
2013-04-02 01:25:00,29.1,15.3,29.91,NNE,28,0.0,0.0,56,0.00,CLR,SKC,0.00,WeatherDisplay:10.37,2013-04-02 05:25:00,
2013-04-02 01:30:00,29.0,15.2,29.91,NNE,28,0.0,0.0,56,0.00,CLR,SKC,0.00,WeatherDisplay:10.37,2013-04-02 05:30:00,
2013-04-02 01:35:00,28.9,15.2,29.91,NNE,28,0.0,0.0,56,0.00,CLR,SKC,0.00,WeatherDisplay:10.37,2013-04-02 05:35:00,
2013-04-02 01:40:00,28.9,15.2,29.91,NNE,28,0.0,0.0,56,0.00,CLR,SKC,0.00,WeatherDisplay:10.37,2013-04-02 05:40:00,
2013-04-02 01:45:00,28.9,15.6,29.91,NNE,28,1.1,1.1,57,0.00,CLR,SKC,0.00,WeatherDisplay:10.37,2013-04-02 05:45:00,
2013-04-02 01:50:00,28.9,15.6,29.91,NNE,28,0.0,0.0,57,0.00,CLR,SKC,0.00,WeatherDisplay:10.37,2013-04-02 05:50:00,
2013-04-02 01:55:00,28.9,16.0,29.91,NNE,28,0.0,0.0,58,0.00,CLR,SKC,0.00,WeatherDisplay:10.37,2013-04-02 05:55:00,
2013-04-02 02:00:00,29.0,15.2,29.91,NNE,28,0.0,0.0,56,0.00,CLR,SKC,0.00,WeatherDisplay:10.37,2013-04-02 06:00:00,
2013-04-02 02:05:00,29.0,15.7,29.91,NNE,28,0.0,0.0,57,0.00,CLR,SKC,0.00,WeatherDisplay:10.37,2013-04-02 06:05:00,
2013-04-02 02:10:00,29.0,15.2,29.91,NNE,28,0.0,0.0,56,0.00,CLR,SKC,0.00,WeatherDisplay:10.37,2013-04-02 06:10:00,
2013-04-02 02:15:00,28.9,15.6,29.91,NNE,28,0.0,0.0,57,0.00,CLR,SKC,0.00,WeatherDisplay:10.37,2013-04-02 06:15:00,
2013-04-02 02:20:00,28.7,15.4,29.91,NNE,28,0.0,0.0,57,0.00,CLR,SKC,0.00,WeatherDisplay:10.37,2013-04-02 06:20:00,
2013-04-02 02:25:00,28.5,15.6,29.91,NNE,28,0.0,0.0,58,0.00,CLR,SKC,0.00,WeatherDisplay:10.37,2013-04-02 06:25:00,
2013-04-02 02:30:00,28.3,15.8,29.91,NNE,28,0.0,0.0,59,0.00,CLR,SKC,0.00,WeatherDisplay:10.37,2013-04-02 06:30:00,
2013-04-02 02:35:00,28.0,15.9,29.91,NNE,28,0.0,0.0,60,0.00,CLR,SKC,0.00,WeatherDisplay:10.37,2013-04-02 06:35:00,
2013-04-02 02:40:00,27.8,15.7,29.91,NNE,28,0.0,0.0,60,0.00,CLR,SKC,0.00,WeatherDisplay:10.37,2013-04-02 06:40:00,
2013-04-02 02:45:00,27.6,15.9,29.91,NNE,28,0.0,0.0,61,0.00,CLR,SKC,0.00,WeatherDisplay:10.37,2013-04-02 06:45:00,
2013-04-02 02:50:00,27.4,16.1,29.91,NNE,28,0.0,0.0,62,0.00,CLR,SKC,0.00,WeatherDisplay:10.37,2013-04-02 06:50:00,
2013-04-02 02:55:00,27.3,16.0,29.91,NNE,28,0.0,0.0,62,0.00,CLR,SKC,0.00,WeatherDisplay:10.37,2013-04-02 06:55:00,
2013-04-02 03:00:00,27.2,15.9,29.91,NNE,28,0.0,0.0,62,0.00,CLR,SKC,0.00,WeatherDisplay:10.37,2013-04-02 07:00:00,
2013-04-02 03:05:00,27.1,16.2,29.91,NNE,28,0.0,0.0,63,0.00,CLR,SKC,0.00,WeatherDisplay:10.37,2013-04-02 07:05:00,
2013-04-02 03:10:00,27.0,16.1,29.91,NNE,28,0.0,0.0,63,0.00,CLR,SKC,0.00,WeatherDisplay:10.37,2013-04-02 07:10:00,
2013-04-02 03:15:00,26.9,16.3,29.91,NNE,28,0.0,0.0,64,0.00,CLR,SKC,0.00,WeatherDisplay:10.37,2013-04-02 07:15:00,
2013-04-02 03:20:00,26.8,16.2,29.91,NNE,28,0.0,0.0,64,0.00,CLR,SKC,0.00,WeatherDisplay:10.37,2013-04-02 07:20:00,
2013-04-02 03:25:00,26.7,16.1,29.91,NNE,28,0.0,0.0,64,0.00,CLR,SKC,0.00,WeatherDisplay:10.37,2013-04-02 07:25:00,
2013-04-02 03:30:00,26.8,16.2,29.91,NNE,28,0.0,0.0,64,0.00,CLR,SKC,0.00,WeatherDisplay:10.37,2013-04-02 07:30:00,
2013-04-02 03:35:00,27.0,16.4,29.91,NNE,28,0.0,0.0,64,0.00,CLR,SKC,0.00,WeatherDisplay:10.37,2013-04-02 07:35:00,
2013-04-02 03:40:00,27.2,16.3,29.91,NNE,28,0.0,0.0,63,0.00,CLR,SKC,0.00,WeatherDisplay:10.37,2013-04-02 07:40:00,
2013-04-02 03:45:00,27.3,16.4,29.91,NNE,28,0.0,0.0,63,0.00,CLR,SKC,0.00,WeatherDisplay:10.37,2013-04-02 07:45:00,
2013-04-02 03:50:00,27.3,16.4,29.91,NNE,28,0.0,0.0,63,0.00,CLR,SKC,0.00,WeatherDisplay:10.37,2013-04-02 07:50:00,
2013-04-02 03:55:00,27.3,16.4,29.91,NNE,28,0.0,0.0,63,0.00,CLR,SKC,0.00,WeatherDisplay:10.37,2013-04-02 07:55:00,
2013-04-02 04:00:00,27.3,16.4,29.91,NNE,28,0.0,0.0,63,0.00,CLR,SKC,0.00,WeatherDisplay:10.37,2013-04-02 08:00:00,
2013-04-02 04:05:00,27.3,16.4,29.91,NNE,28,0.0,0.0,63,0.00,CLR,SKC,0.00,WeatherDisplay:10.37,2013-04-02 08:05:00,
2013-04-02 04:10:00,27.3,16.4,29.92,NNE,28,0.0,0.0,63,0.00,CLR,SKC,0.00,WeatherDisplay:10.37,2013-04-02 08:10:00,
2013-04-02 04:15:00,27.3,16.7,29.92,NNE,28,0.0,0.0,64,0.00,CLR,SKC,0.00,WeatherDisplay:10.37,2013-04-02 08:15:00,
2013-04-02 04:20:00,27.2,17.0,29.92,NNE,28,0.0,0.0,65,0.00,CLR,SKC,0.00,WeatherDisplay:10.37,2013-04-02 08:20:00,
2013-04-02 04:25:00,27.1,17.2,29.92,NNE,28,0.0,0.0,66,0.00,CLR,SKC,0.00,WeatherDisplay:10.37,2013-04-02 08:25:00,
2013-04-02 04:30:00,27.0,17.1,29.92,NNE,28,0.0,0.0,66,0.00,CLR,SKC,0.00,WeatherDisplay:10.37,2013-04-02 08:30:00,
2013-04-02 04:35:00,26.8,17.0,29.92,NNE,28,0.0,0.0,66,0.00,CLR,SKC,0.00,WeatherDisplay:10.37,2013-04-02 08:35:00,
2013-04-02 04:40:00,26.7,16.9,29.92,NNE,28,0.0,0.0,66,0.00,CLR,SKC,0.00,WeatherDisplay:10.37,2013-04-02 08:40:00,
2013-04-02 04:45:00,26.5,16.7,29.92,NNE,28,0.0,0.0,66,0.00,CLR,SKC,0.00,WeatherDisplay:10.37,2013-04-02 08:45:00,
2013-04-02 04:50:00,26.4,16.9,29.92,NNE,28,0.0,0.0,67,0.00,CLR,SKC,0.00,WeatherDisplay:10.37,2013-04-02 08:50:00,
2013-04-02 04:55:00,26.2,16.7,29.92,NNE,28,0.0,0.0,67,0.00,CLR,SKC,0.00,WeatherDisplay:10.37,2013-04-02 08:55:00,
2013-04-02 05:00:00,26.0,16.9,29.92,NNE,28,0.0,0.0,68,0.00,CLR,SKC,0.00,WeatherDisplay:10.37,2013-04-02 09:00:00,
2013-04-02 05:05:00,25.8,16.7,29.92,NNE,28,0.0,0.0,68,0.00,CLR,SKC,0.00,WeatherDisplay:10.37,2013-04-02 09:05:00,
2013-04-02 05:10:00,25.7,16.9,29.93,NNE,28,0.0,0.0,69,0.00,CLR,SKC,0.00,WeatherDisplay:10.37,2013-04-02 09:10:00,
2013-04-02 05:15:00,25.7,17.3,29.93,NNE,28,0.0,0.0,70,0.00,CLR,SKC,0.00,WeatherDisplay:10.37,2013-04-02 09:15:00,
2013-04-02 05:20:00,25.6,17.2,29.93,NNE,28,0.0,0.0,70,0.00,CLR,SKC,0.00,WeatherDisplay:10.37,2013-04-02 09:20:00,
2013-04-02 05:25:00,25.5,17.4,29.93,NNE,28,0.0,0.0,71,0.00,CLR,SKC,0.00,WeatherDisplay:10.37,2013-04-02 09:25:00,
2013-04-02 05:30:00,25.5,17.4,29.94,NNE,28,0.0,0.0,71,0.00,CLR,SKC,0.00,WeatherDisplay:10.37,2013-04-02 09:30:00,
2013-04-02 05:35:00,25.8,17.4,29.94,NE,42,4.6,4.6,70,0.00,CLR,SKC,0.00,WeatherDisplay:10.37,2013-04-02 09:35:00,
2013-04-02 05:40:00,26.5,17.7,29.94,NE,42,0.0,0.0,69,0.00,CLR,SKC,0.00,WeatherDisplay:10.37,2013-04-02 09:40:00,
2013-04-02 05:45:00,26.8,18.0,29.94,NE,42,0.0,0.0,69,0.00,CLR,SKC,0.00,WeatherDisplay:10.37,2013-04-02 09:45:00,
2013-04-02 05:50:00,27.0,17.8,29.94,NE,49,4.6,4.6,68,0.00,CLR,SKC,0.00,WeatherDisplay:10.37,2013-04-02 09:50:00,
2013-04-02 05:55:00,27.4,17.9,29.94,NE,46,4.6,4.6,67,0.00,CLR,SKC,0.00,WeatherDisplay:10.37,2013-04-02 09:55:00,
2013-04-02 06:00:00,28.0,18.5,29.94,NE,39,3.4,3.4,67,0.00,CLR,SKC,0.00,WeatherDisplay:10.37,2013-04-02 10:00:00,
2013-04-02 06:05:00,28.3,18.4,29.94,NNE,28,3.4,3.4,66,0.00,CLR,SKC,0.00,WeatherDisplay:10.37,2013-04-02 10:05:00,
2013-04-02 06:10:00,28.4,18.5,29.95,NE,42,1.1,0.0,66,0.00,CLR,SKC,0.00,WeatherDisplay:10.37,2013-04-02 10:10:00,
2013-04-02 06:15:00,28.5,18.6,29.95,NE,36,3.4,3.4,66,0.00,CLR,SKC,0.00,WeatherDisplay:10.37,2013-04-02 10:15:00,
2013-04-02 06:20:00,28.5,18.6,29.95,NNE,24,4.0,4.0,66,0.00,CLR,SKC,0.00,WeatherDisplay:10.37,2013-04-02 10:20:00,
2013-04-02 06:25:00,28.6,18.7,29.95,NNE,27,3.4,3.4,66,0.00,CLR,SKC,0.00,WeatherDisplay:10.37,2013-04-02 10:25:00,
2013-04-02 06:30:00,28.5,18.9,29.95,NNE,13,3.4,3.4,67,0.00,CLR,SKC,0.00,WeatherDisplay:10.37,2013-04-02 10:30:00,
2013-04-02 06:35:00,28.4,18.8,29.95,NE,50,2.3,2.3,67,0.00,CLR,SKC,0.00,WeatherDisplay:10.37,2013-04-02 10:35:00,
2013-04-02 06:40:00,28.3,18.7,29.95,North,5,3.4,3.4,67,0.00,CLR,SKC,0.00,WeatherDisplay:10.37,2013-04-02 10:40:00,
2013-04-02 06:45:00,28.2,18.6,29.95,NE,36,0.0,0.0,67,0.00,CLR,SKC,0.00,WeatherDisplay:10.37,2013-04-02 10:45:00,
2013-04-02 06:50:00,28.2,19.0,29.96,NE,36,2.3,2.3,68,0.00,CLR,SKC,0.00,WeatherDisplay:10.37,2013-04-02 10:50:00,
2013-04-02 06:55:00,28.1,18.9,29.96,NE,38,2.3,2.3,68,0.00,CLR,SKC,0.00,WeatherDisplay:10.37,2013-04-02 10:55:00,
2013-04-02 07:00:00,28.0,18.8,29.96,NE,38,1.1,1.1,68,0.00,CLR,SKC,0.00,WeatherDisplay:10.37,2013-04-02 11:00:00,
2013-04-02 07:05:00,27.9,18.7,29.97,North,5,3.4,3.4,68,0.00,CLR,SKC,0.00,WeatherDisplay:10.37,2013-04-02 11:05:00,
2013-04-02 07:10:00,28.0,18.5,29.97,North,355,1.0,0.0,67,0.00,CLR,SKC,0.00,WeatherDisplay:10.37,2013-04-02 11:10:00,
2013-04-02 07:15:00,28.2,18.6,29.98,NNE,32,3.4,3.4,67,0.00,CLR,SKC,0.00,WeatherDisplay:10.37,2013-04-02 11:15:00,
2013-04-02 07:20:00,28.3,18.7,29.98,NE,36,3.4,3.4,67,0.00,CLR,SKC,0.00,WeatherDisplay:10.37,2013-04-02 11:20:00,
2013-04-02 07:25:00,28.3,18.7,29.98,NE,36,0.0,0.0,67,0.00,CLR,SKC,0.00,WeatherDisplay:10.37,2013-04-02 11:25:00,
2013-04-02 07:30:00,28.4,18.8,29.98,NNE,27,3.4,3.4,67,0.00,CLR,SKC,0.00,WeatherDisplay:10.37,2013-04-02 11:30:00,
2013-04-02 07:35:00,28.5,18.6,29.99,NNE,32,2.3,2.3,66,0.00,CLR,SKC,0.00,WeatherDisplay:10.37,2013-04-02 11:35:00,
2013-04-02 07:40:00,28.6,18.7,29.99,NE,44,4.0,4.0,66,0.00,CLR,SKC,0.00,WeatherDisplay:10.37,2013-04-02 11:40:00,
2013-04-02 07:45:00,29.3,17.1,29.99,NE,38,7.0,7.0,60,0.00,CLR,SKC,0.00,WeatherDisplay:10.37,2013-04-02 11:45:00,
2013-04-02 07:50:00,29.8,16.4,29.99,NNW,342,11.5,11.5,57,0.00,CLR,SKC,0.00,WeatherDisplay:10.37,2013-04-02 11:50:00,
2013-04-02 07:55:00,30.2,16.4,29.99,NE,43,7.0,7.0,56,0.00,CLR,SKC,0.00,WeatherDisplay:10.37,2013-04-02 11:55:00,
2013-04-02 08:00:00,30.6,16.7,30.00,NE,37,4.6,4.6,56,0.00,CLR,SKC,0.00,WeatherDisplay:10.37,2013-04-02 12:00:00,
2013-04-02 08:05:00,31.0,16.3,30.00,NNE,33,10.3,10.3,54,0.00,CLR,SKC,0.00,WeatherDisplay:10.37,2013-04-02 12:05:00,
2013-04-02 08:10:00,31.2,16.0,30.00,NE,49,5.8,5.8,53,0.00,CLR,SKC,0.00,WeatherDisplay:10.37,2013-04-02 12:10:00,
2013-04-02 08:15:00,31.4,15.8,30.00,North,5,8.1,8.1,52,0.00,CLR,SKC,0.00,WeatherDisplay:10.37,2013-04-02 12:15:00,
2013-04-02 08:20:00,31.6,16.0,30.00,NNE,23,5.8,5.8,52,0.00,CLR,SKC,0.00,WeatherDisplay:10.37,2013-04-02 12:20:00,
2013-04-02 08:25:00,32.0,15.9,30.01,NE,38,8.1,8.1,51,0.00,CLR,SKC,0.00,WeatherDisplay:10.37,2013-04-02 12:25:00,
2013-04-02 08:30:00,32.3,16.6,30.01,NNE,12,6.0,6.0,52,0.00,CLR,SKC,0.00,WeatherDisplay:10.37,2013-04-02 12:30:00,
2013-04-02 08:35:00,32.5,16.8,30.01,NE,49,5.8,5.8,52,0.00,CLR,SKC,0.00,WeatherDisplay:10.37,2013-04-02 12:35:00,
2013-04-02 08:40:00,32.6,16.0,30.01,NE,47,8.1,8.1,50,0.00,CLR,SKC,0.00,WeatherDisplay:10.37,2013-04-02 12:40:00,
2013-04-02 08:45:00,32.9,16.3,30.01,NE,40,6.9,6.9,50,0.00,CLR,SKC,0.00,WeatherDisplay:10.37,2013-04-02 12:45:00,
2013-04-02 08:50:00,33.0,16.4,30.01,NE,48,6.0,6.0,50,0.00,CLR,SKC,0.00,WeatherDisplay:10.37,2013-04-02 12:50:00,
2013-04-02 08:55:00,32.8,16.2,30.02,East,84,6.9,6.9,50,0.00,CLR,SKC,0.00,WeatherDisplay:10.37,2013-04-02 12:55:00,
2013-04-02 09:00:00,32.3,14.8,30.02,NNE,21,8.1,8.1,48,0.00,CLR,SKC,0.00,WeatherDisplay:10.37,2013-04-02 13:00:00,
2013-04-02 09:05:00,31.8,15.3,30.02,NE,38,8.0,8.0,50,0.00,CLR,SKC,0.00,WeatherDisplay:10.37,2013-04-02 13:05:00,
2013-04-02 09:10:00,31.7,15.6,30.02,NNE,30,8.1,8.1,51,0.00,CLR,SKC,0.00,WeatherDisplay:10.37,2013-04-02 13:10:00,
2013-04-02 09:15:00,32.5,15.9,30.02,NE,49,4.6,4.6,50,0.00,CLR,SKC,0.00,WeatherDisplay:10.37,2013-04-02 13:15:00,
2013-04-02 09:20:00,33.1,16.9,30.02,NE,37,10.3,10.3,51,0.00,CLR,SKC,0.00,WeatherDisplay:10.37,2013-04-02 13:20:00,
2013-04-02 09:25:00,33.2,16.1,30.02,NE,55,6.9,6.9,49,0.00,CLR,SKC,0.00,WeatherDisplay:10.37,2013-04-02 13:25:00,
2013-04-02 09:30:00,33.2,16.5,30.03,NNE,24,5.8,5.8,50,0.00,CLR,SKC,0.00,WeatherDisplay:10.37,2013-04-02 13:30:00,
2013-04-02 09:35:00,33.7,17.5,30.02,NE,36,11.5,11.5,51,0.00,CLR,SKC,0.00,WeatherDisplay:10.37,2013-04-02 13:35:00,
2013-04-02 09:40:00,33.6,15.0,30.03,NNW,348,17.0,17.0,46,0.00,CLR,SKC,0.00,WeatherDisplay:10.37,2013-04-02 13:40:00,
2013-04-02 09:45:00,33.0,14.9,30.03,North,360,11.5,11.5,47,0.00,CLR,SKC,0.00,WeatherDisplay:10.37,2013-04-02 13:45:00,
2013-04-02 09:50:00,33.6,16.5,30.03,NNW,333,9.2,9.2,49,0.00,CLR,SKC,0.00,WeatherDisplay:10.37,2013-04-02 13:50:00,
2013-04-02 09:55:00,33.9,15.3,30.03,NNE,22,11.5,11.5,46,0.00,CLR,SKC,0.00,WeatherDisplay:10.37,2013-04-02 13:55:00,
2013-04-02 10:00:00,33.7,15.1,30.03,NE,44,13.8,13.8,46,0.00,CLR,SKC,0.00,WeatherDisplay:10.37,2013-04-02 14:00:00,
2013-04-02 10:05:00,33.3,15.7,30.03,NNW,335,4.6,4.6,48,0.00,CLR,SKC,0.00,WeatherDisplay:10.37,2013-04-02 14:05:00,
2013-04-02 10:10:00,33.9,15.8,30.03,NE,46,4.6,4.6,47,0.00,CLR,SKC,0.00,WeatherDisplay:10.37,2013-04-02 14:10:00,
2013-04-02 10:15:00,34.8,17.1,30.03,NNE,29,12.0,12.0,48,0.00,CLR,SKC,0.00,WeatherDisplay:10.37,2013-04-02 14:15:00,
2013-04-02 10:20:00,35.5,17.2,30.03,NE,38,11.5,11.5,47,0.00,CLR,SKC,0.00,WeatherDisplay:10.37,2013-04-02 14:20:00,
2013-04-02 10:25:00,35.5,15.7,30.03,East,86,6.9,6.9,44,0.00,CLR,SKC,0.00,WeatherDisplay:10.37,2013-04-02 14:25:00,
2013-04-02 10:30:00,35.4,15.6,30.03,ENE,61,4.6,4.6,44,0.00,CLR,SKC,0.00,WeatherDisplay:10.37,2013-04-02 14:30:00,
2013-04-02 10:35:00,35.0,16.3,30.03,NNW,328,10.0,10.0,46,0.00,CLR,SKC,0.00,WeatherDisplay:10.37,2013-04-02 14:35:00,
2013-04-02 10:40:00,34.5,16.8,30.03,NE,36,8.1,8.1,48,0.00,CLR,SKC,0.00,WeatherDisplay:10.37,2013-04-02 14:40:00,
2013-04-02 10:45:00,34.6,16.9,30.03,NW,305,10.3,10.3,48,0.00,CLR,SKC,0.00,WeatherDisplay:10.37,2013-04-02 14:45:00,
2013-04-02 10:50:00,35.3,17.1,30.03,NE,36,12.6,12.6,47,0.00,CLR,SKC,0.00,WeatherDisplay:10.37,2013-04-02 14:50:00,
2013-04-02 10:55:00,35.0,17.3,30.03,NE,51,5.8,5.8,48,0.00,CLR,SKC,0.00,WeatherDisplay:10.37,2013-04-02 14:55:00,
2013-04-02 11:00:00,34.5,16.3,30.03,NNE,29,8.1,8.1,47,0.00,CLR,SKC,0.00,WeatherDisplay:10.37,2013-04-02 15:00:00,
2013-04-02 11:05:00,34.3,15.6,30.03,NNE,23,6.0,6.0,46,0.00,CLR,SKC,0.00,WeatherDisplay:10.37,2013-04-02 15:05:00,
2013-04-02 11:10:00,34.8,16.1,30.03,NE,36,8.1,8.1,46,0.00,CLR,SKC,0.00,WeatherDisplay:10.37,2013-04-02 15:10:00,
2013-04-02 11:15:00,35.1,16.4,30.03,NW,321,8.1,8.1,46,0.00,CLR,SKC,0.00,WeatherDisplay:10.37,2013-04-02 15:15:00,
2013-04-02 11:20:00,35.1,16.4,30.03,ENE,57,11.5,11.5,46,0.00,CLR,SKC,0.00,WeatherDisplay:10.37,2013-04-02 15:20:00,
2013-04-02 11:25:00,34.9,16.7,30.03,NNE,19,11.5,11.5,47,0.00,CLR,SKC,0.00,WeatherDisplay:10.37,2013-04-02 15:25:00,
2013-04-02 11:30:00,36.0,19.1,30.03,NE,34,9.2,9.2,50,0.00,CLR,SKC,0.00,WeatherDisplay:10.37,2013-04-02 15:30:00,
2013-04-02 11:35:00,37.2,18.3,30.02,NNE,19,12.6,12.6,46,0.00,CLR,SKC,0.00,WeatherDisplay:10.37,2013-04-02 15:35:00,
2013-04-02 11:40:00,37.3,17.9,30.02,NNE,15,6.9,6.9,45,0.00,CLR,SKC,0.00,WeatherDisplay:10.37,2013-04-02 15:40:00,
2013-04-02 11:45:00,37.8,18.3,30.02,NE,34,12.0,12.0,45,0.00,CLR,SKC,0.00,WeatherDisplay:10.37,2013-04-02 15:45:00,
2013-04-02 11:50:00,37.8,18.8,30.02,NE,42,10.3,10.3,46,0.00,CLR,SKC,0.00,WeatherDisplay:10.37,2013-04-02 15:50:00,
2013-04-02 11:55:00,38.1,18.1,30.02,NNE,24,5.8,5.8,44,0.00,CLR,SKC,0.00,WeatherDisplay:10.37,2013-04-02 15:55:00,
2013-04-02 12:00:00,38.1,16.4,30.02,NNW,330,9.2,9.2,41,0.00,CLR,SKC,0.00,WeatherDisplay:10.37,2013-04-02 16:00:00,
2013-04-02 12:05:00,38.1,17.0,30.02,North,349,15.0,15.0,42,0.00,CLR,SKC,0.00,WeatherDisplay:10.37,2013-04-02 16:05:00,
2013-04-02 12:10:00,38.3,18.3,30.02,North,11,8.1,8.1,44,0.00,CLR,SKC,0.00,WeatherDisplay:10.37,2013-04-02 16:10:00,
2013-04-02 12:15:00,38.7,18.6,30.01,North,5,8.1,8.1,44,0.00,CLR,SKC,0.00,WeatherDisplay:10.37,2013-04-02 16:15:00,
2013-04-02 12:20:00,38.7,16.4,30.01,NNE,15,8.1,8.1,40,0.00,CLR,SKC,0.00,WeatherDisplay:10.37,2013-04-02 16:20:00,
2013-04-02 12:25:00,38.8,18.7,30.01,NE,40,11.5,11.5,44,0.00,CLR,SKC,0.00,WeatherDisplay:10.37,2013-04-02 16:25:00,
2013-04-02 12:30:00,39.1,17.9,30.01,NE,47,11.5,11.5,42,0.00,CLR,SKC,0.00,WeatherDisplay:10.37,2013-04-02 16:30:00,
2013-04-02 12:35:00,38.8,17.6,30.01,NE,37,11.5,11.5,42,0.00,CLR,SKC,0.00,WeatherDisplay:10.37,2013-04-02 16:35:00,
2013-04-02 12:40:00,39.1,17.9,30.01,NNE,24,13.8,13.8,42,0.00,CLR,SKC,0.00,WeatherDisplay:10.37,2013-04-02 16:40:00,
2013-04-02 12:45:00,39.5,18.8,30.01,NE,42,11.5,11.5,43,0.00,CLR,SKC,0.00,WeatherDisplay:10.37,2013-04-02 16:45:00,
2013-04-02 12:50:00,39.8,18.0,30.01,North,5,11.5,11.5,41,0.00,CLR,SKC,0.00,WeatherDisplay:10.37,2013-04-02 16:50:00,
2013-04-02 12:55:00,38.9,17.7,30.00,NE,44,10.3,10.3,42,0.00,CLR,SKC,0.00,WeatherDisplay:10.37,2013-04-02 16:55:00,
2013-04-02 13:00:00,39.7,20.1,30.01,NNW,334,10.3,10.3,45,0.00,CLR,SKC,0.00,WeatherDisplay:10.37,2013-04-02 17:00:00,
2013-04-02 13:05:00,40.0,18.2,30.00,NE,41,8.1,8.1,41,0.00,CLR,SKC,0.00,WeatherDisplay:10.37,2013-04-02 17:05:00,
2013-04-02 13:10:00,39.8,18.0,30.00,NE,46,8.1,8.1,41,0.00,CLR,SKC,0.00,WeatherDisplay:10.37,2013-04-02 17:10:00,
2013-04-02 13:15:00,39.9,18.6,30.00,North,5,12.6,12.6,42,0.00,CLR,SKC,0.00,WeatherDisplay:10.37,2013-04-02 17:15:00,
2013-04-02 13:20:00,39.1,16.2,30.00,ENE,57,10.3,10.3,39,0.00,CLR,SKC,0.00,WeatherDisplay:10.37,2013-04-02 17:20:00,
2013-04-02 13:25:00,38.8,17.1,30.00,NNE,13,4.6,4.6,41,0.00,CLR,SKC,0.00,WeatherDisplay:10.37,2013-04-02 17:25:00,
2013-04-02 13:30:00,39.0,17.8,30.00,SSW,199,8.1,8.1,42,0.00,CLR,SKC,0.00,WeatherDisplay:10.37,2013-04-02 17:30:00,
2013-04-02 13:35:00,39.1,16.8,30.00,NE,56,13.8,13.8,40,0.00,CLR,SKC,0.00,WeatherDisplay:10.37,2013-04-02 17:35:00,
2013-04-02 13:40:00,38.6,15.7,30.00,NNE,22,8.1,8.1,39,0.00,CLR,SKC,0.00,WeatherDisplay:10.37,2013-04-02 17:40:00,
2013-04-02 13:45:00,38.3,15.5,29.99,NE,43,11.5,11.5,39,0.00,CLR,SKC,0.00,WeatherDisplay:10.37,2013-04-02 17:45:00,
2013-04-02 13:50:00,38.3,17.7,29.99,NE,37,6.9,6.9,43,0.00,CLR,SKC,0.00,WeatherDisplay:10.37,2013-04-02 17:50:00,
2013-04-02 13:55:00,39.2,16.9,29.99,NNE,26,11.0,11.0,40,0.00,CLR,SKC,0.00,WeatherDisplay:10.37,2013-04-02 17:55:00,
2013-04-02 14:00:00,39.3,16.4,29.99,NNE,29,11.5,11.5,39,0.00,CLR,SKC,0.00,WeatherDisplay:10.37,2013-04-02 18:00:00,
2013-04-02 14:05:00,39.8,18.5,29.99,NE,40,11.5,11.5,42,0.00,CLR,SKC,0.00,WeatherDisplay:10.37,2013-04-02 18:05:00,
2013-04-02 14:10:00,40.8,15.9,29.99,NNE,16,11.5,11.5,36,0.00,CLR,SKC,0.00,WeatherDisplay:10.37,2013-04-02 18:10:00,
2013-04-02 14:15:00,40.7,15.8,29.98,NNE,26,13.8,13.8,36,0.00,CLR,SKC,0.00,WeatherDisplay:10.37,2013-04-02 18:15:00,
2013-04-02 14:20:00,40.7,16.4,29.98,North,10,13.8,13.8,37,0.00,CLR,SKC,0.00,WeatherDisplay:10.37,2013-04-02 18:20:00,
2013-04-02 14:25:00,40.8,16.5,29.98,North,360,16.1,16.1,37,0.00,CLR,SKC,0.00,WeatherDisplay:10.37,2013-04-02 18:25:00,
2013-04-02 14:30:00,40.9,16.6,29.98,North,350,8.1,8.1,37,0.00,CLR,SKC,0.00,WeatherDisplay:10.37,2013-04-02 18:30:00,
2013-04-02 14:35:00,41.2,17.5,29.98,NE,53,6.9,6.9,38,0.00,CLR,SKC,0.00,WeatherDisplay:10.37,2013-04-02 18:35:00,
2013-04-02 14:40:00,41.5,18.9,29.98,NNE,13,11.5,11.5,40,0.00,CLR,SKC,0.00,WeatherDisplay:10.37,2013-04-02 18:40:00,
2013-04-02 14:45:00,41.8,16.8,29.97,North,5,13.8,13.8,36,0.00,CLR,SKC,0.00,WeatherDisplay:10.37,2013-04-02 18:45:00,
2013-04-02 14:50:00,42.2,17.8,29.97,NE,54,8.1,8.1,37,0.00,CLR,SKC,0.00,WeatherDisplay:10.37,2013-04-02 18:50:00,
2013-04-02 14:55:00,42.4,17.3,29.97,NE,40,18.4,18.4,36,0.00,CLR,SKC,0.00,WeatherDisplay:10.37,2013-04-02 18:55:00,
2013-04-02 15:00:00,41.7,16.0,29.97,NE,56,11.5,11.5,35,0.00,CLR,SKC,0.00,WeatherDisplay:10.37,2013-04-02 19:00:00,
2013-04-02 15:05:00,41.7,17.3,29.97,NW,326,12.0,12.0,37,0.00,CLR,SKC,0.00,WeatherDisplay:10.37,2013-04-02 19:05:00,
2013-04-02 15:10:00,41.2,16.9,29.97,North,5,11.5,11.5,37,0.00,CLR,SKC,0.00,WeatherDisplay:10.37,2013-04-02 19:10:00,
2013-04-02 15:15:00,40.8,13.9,29.97,NNW,334,12.0,12.0,33,0.00,CLR,SKC,0.00,WeatherDisplay:10.37,2013-04-02 19:15:00,
2013-04-02 15:20:00,40.2,14.7,29.97,NE,36,11.5,11.5,35,0.00,CLR,SKC,0.00,WeatherDisplay:10.37,2013-04-02 19:20:00,
2013-04-02 15:25:00,40.7,16.4,29.96,NNE,26,7.0,7.0,37,0.00,CLR,SKC,0.00,WeatherDisplay:10.37,2013-04-02 19:25:00,
2013-04-02 15:30:00,41.8,15.4,29.96,NNE,32,17.3,17.3,34,0.00,CLR,SKC,0.00,WeatherDisplay:10.37,2013-04-02 19:30:00,
2013-04-02 15:35:00,41.6,14.6,29.96,North,355,13.8,13.8,33,0.00,CLR,SKC,0.00,WeatherDisplay:10.37,2013-04-02 19:35:00,
2013-04-02 15:40:00,41.0,15.4,29.97,NNE,30,12.0,12.0,35,0.00,CLR,SKC,0.00,WeatherDisplay:10.37,2013-04-02 19:40:00,
2013-04-02 15:45:00,41.3,16.3,29.96,NE,55,11.5,11.5,36,0.00,CLR,SKC,0.00,WeatherDisplay:10.37,2013-04-02 19:45:00,
2013-04-02 15:50:00,41.4,17.0,29.96,NE,44,11.5,11.5,37,0.00,CLR,SKC,0.00,WeatherDisplay:10.37,2013-04-02 19:50:00,
2013-04-02 15:55:00,41.2,15.6,29.97,NE,35,12.0,12.0,35,0.00,CLR,SKC,0.00,WeatherDisplay:10.37,2013-04-02 19:55:00,
2013-04-02 16:00:00,41.0,16.0,29.96,NE,38,8.1,8.1,36,0.00,CLR,SKC,0.00,WeatherDisplay:10.37,2013-04-02 20:00:00,
2013-04-02 16:05:00,40.8,15.2,29.97,NNE,21,10.3,10.3,35,0.00,CLR,SKC,0.00,WeatherDisplay:10.37,2013-04-02 20:05:00,
2013-04-02 16:10:00,40.6,15.0,29.97,NNE,13,8.1,8.1,35,0.00,CLR,SKC,0.00,WeatherDisplay:10.37,2013-04-02 20:10:00,
2013-04-02 16:15:00,41.0,16.0,29.97,North,350,10.3,10.3,36,0.00,CLR,SKC,0.00,WeatherDisplay:10.37,2013-04-02 20:15:00,
2013-04-02 16:20:00,42.0,16.9,29.97,NNE,28,11.5,11.5,36,0.00,CLR,SKC,0.00,WeatherDisplay:10.37,2013-04-02 20:20:00,
2013-04-02 16:25:00,41.9,15.5,29.97,NE,35,6.0,6.0,34,0.00,CLR,SKC,0.00,WeatherDisplay:10.37,2013-04-02 20:25:00,
2013-04-02 16:30:00,42.0,14.9,29.97,NNE,20,12.6,12.6,33,0.00,CLR,SKC,0.00,WeatherDisplay:10.37,2013-04-02 20:30:00,
2013-04-02 16:35:00,42.2,19.0,29.97,NE,46,10.3,10.3,39,0.00,CLR,SKC,0.00,WeatherDisplay:10.37,2013-04-02 20:35:00,
2013-04-02 16:40:00,42.1,15.7,29.97,NE,55,10.3,10.3,34,0.00,CLR,SKC,0.00,WeatherDisplay:10.37,2013-04-02 20:40:00,
2013-04-02 16:45:00,42.1,15.0,29.97,NE,49,16.1,16.1,33,0.00,CLR,SKC,0.00,WeatherDisplay:10.37,2013-04-02 20:45:00,
2013-04-02 16:50:00,42.5,18.0,29.97,ENE,59,11.5,11.5,37,0.00,CLR,SKC,0.00,WeatherDisplay:10.37,2013-04-02 20:50:00,
2013-04-02 16:55:00,42.1,15.7,29.98,North,5,17.0,17.0,34,0.00,CLR,SKC,0.00,WeatherDisplay:10.37,2013-04-02 20:55:00,
2013-04-02 17:00:00,41.2,14.9,29.97,ENE,59,14.9,14.9,34,0.00,CLR,SKC,0.00,WeatherDisplay:10.37,2013-04-02 21:00:00,
2013-04-02 17:05:00,40.5,15.0,29.98,NNE,22,10.3,10.3,35,0.00,CLR,SKC,0.00,WeatherDisplay:10.37,2013-04-02 21:05:00,
2013-04-02 17:10:00,40.2,16.0,29.98,NE,41,8.1,8.1,37,0.00,CLR,SKC,0.00,WeatherDisplay:10.37,2013-04-02 21:10:00,
2013-04-02 17:15:00,40.1,14.6,29.98,NNE,32,9.2,9.2,35,0.00,CLR,SKC,0.00,WeatherDisplay:10.37,2013-04-02 21:15:00,
2013-04-02 17:20:00,40.3,16.7,29.98,ENE,57,12.6,12.6,38,0.00,CLR,SKC,0.00,WeatherDisplay:10.37,2013-04-02 21:20:00,
2013-04-02 17:25:00,40.8,15.9,29.98,NE,34,11.5,11.5,36,0.00,CLR,SKC,0.00,WeatherDisplay:10.37,2013-04-02 21:25:00,
2013-04-02 17:30:00,41.1,16.8,29.98,North,349,10.3,10.3,37,0.00,CLR,SKC,0.00,WeatherDisplay:10.37,2013-04-02 21:30:00,
2013-04-02 17:35:00,40.8,15.9,29.98,NNW,330,10.0,10.0,36,0.00,CLR,SKC,0.00,WeatherDisplay:10.37,2013-04-02 21:35:00,
2013-04-02 17:40:00,41.0,16.7,29.99,North,360,8.1,8.1,37,0.00,CLR,SKC,0.00,WeatherDisplay:10.37,2013-04-02 21:40:00,
2013-04-02 17:45:00,41.4,17.7,29.99,NNE,26,8.0,8.0,38,0.00,CLR,SKC,0.00,WeatherDisplay:10.37,2013-04-02 21:45:00,
2013-04-02 17:50:00,41.1,15.5,29.99,NNW,346,12.6,12.6,35,0.00,CLR,SKC,0.00,WeatherDisplay:10.37,2013-04-02 21:50:00,
2013-04-02 17:55:00,40.6,15.7,29.99,NNE,15,10.3,10.3,36,0.00,CLR,SKC,0.00,WeatherDisplay:10.37,2013-04-02 21:55:00,
2013-04-02 18:00:00,40.1,16.5,29.99,NNE,18,8.1,8.1,38,0.00,CLR,SKC,0.00,WeatherDisplay:10.37,2013-04-02 22:00:00,
2013-04-02 18:05:00,39.8,15.6,30.00,NNE,12,11.5,11.5,37,0.00,CLR,SKC,0.00,WeatherDisplay:10.37,2013-04-02 22:05:00,
2013-04-02 18:10:00,39.6,16.0,30.00,NE,44,10.3,10.3,38,0.00,CLR,SKC,0.00,WeatherDisplay:10.37,2013-04-02 22:10:00,
2013-04-02 18:15:00,39.7,16.1,30.00,North,5,5.8,5.8,38,0.00,CLR,SKC,0.00,WeatherDisplay:10.37,2013-04-02 22:15:00,
2013-04-02 18:20:00,39.7,16.1,30.00,NE,43,12.6,12.6,38,0.00,CLR,SKC,0.00,WeatherDisplay:10.37,2013-04-02 22:20:00,
2013-04-02 18:25:00,39.6,16.0,30.00,NE,46,8.1,8.1,38,0.00,CLR,SKC,0.00,WeatherDisplay:10.37,2013-04-02 22:25:00,
2013-04-02 18:30:00,39.6,16.0,30.00,North,10,11.5,11.5,38,0.00,CLR,SKC,0.00,WeatherDisplay:10.37,2013-04-02 22:30:00,
2013-04-02 18:35:00,39.6,16.6,30.00,NE,36,9.2,9.2,39,0.00,CLR,SKC,0.00,WeatherDisplay:10.37,2013-04-02 22:35:00,
2013-04-02 18:40:00,39.6,16.6,30.01,NE,37,10.3,10.3,39,0.00,CLR,SKC,0.00,WeatherDisplay:10.37,2013-04-02 22:40:00,
2013-04-02 18:45:00,39.7,16.1,30.00,NNE,23,11.5,11.5,38,0.00,CLR,SKC,0.00,WeatherDisplay:10.37,2013-04-02 22:45:00,
2013-04-02 18:50:00,39.6,16.6,30.01,NNE,26,11.5,11.5,39,0.00,CLR,SKC,0.00,WeatherDisplay:10.37,2013-04-02 22:50:00,
2013-04-02 18:55:00,39.5,17.1,30.01,NE,44,9.0,9.0,40,0.00,CLR,SKC,0.00,WeatherDisplay:10.37,2013-04-02 22:55:00,
2013-04-02 19:01:00,39.2,16.9,30.01,NNE,29,9.2,9.2,40,0.00,CLR,SKC,0.00,WeatherDisplay:10.37,2013-04-02 23:01:00,
2013-04-02 19:06:00,38.8,17.1,30.01,NE,51,8.1,8.1,41,0.00,CLR,SKC,0.00,WeatherDisplay:10.37,2013-04-02 23:06:00,
2013-04-02 19:11:00,38.5,16.8,30.02,NE,46,6.9,6.9,41,0.00,CLR,SKC,0.00,WeatherDisplay:10.37,2013-04-02 23:11:00,
2013-04-02 19:16:00,38.4,16.7,30.02,NNE,32,10.3,10.3,41,0.00,CLR,SKC,0.00,WeatherDisplay:10.37,2013-04-02 23:16:00,
2013-04-02 19:21:00,38.2,17.6,30.02,NE,34,5.8,5.8,43,0.00,CLR,SKC,0.00,WeatherDisplay:10.37,2013-04-02 23:21:00,
2013-04-02 19:26:00,38.0,17.5,30.02,NE,43,6.9,6.9,43,0.00,CLR,SKC,0.00,WeatherDisplay:10.37,2013-04-02 23:26:00,
2013-04-02 19:31:00,37.9,16.8,30.02,NE,36,11.5,11.5,42,0.00,CLR,SKC,0.00,WeatherDisplay:10.37,2013-04-02 23:31:00,
2013-04-02 19:36:00,37.9,16.8,30.03,NE,42,5.8,5.8,42,0.00,CLR,SKC,0.00,WeatherDisplay:10.37,2013-04-02 23:36:00,
2013-04-02 19:41:00,37.8,17.3,30.03,NNE,29,6.9,6.9,43,0.00,CLR,SKC,0.00,WeatherDisplay:10.37,2013-04-02 23:41:00,
2013-04-02 19:46:00,37.7,17.7,30.03,North,360,6.9,6.9,44,0.00,CLR,SKC,0.00,WeatherDisplay:10.37,2013-04-02 23:46:00,
2013-04-02 19:51:00,37.7,18.2,30.03,NE,38,3.4,3.4,45,0.00,CLR,SKC,0.00,WeatherDisplay:10.37,2013-04-02 23:51:00,
2013-04-02 19:56:00,37.5,17.5,30.03,NNE,13,10.3,10.3,44,0.00,CLR,SKC,0.00,WeatherDisplay:10.37,2013-04-02 23:56:00,
2013-04-02 20:01:00,37.3,17.4,30.03,North,355,9.2,9.2,44,0.00,CLR,SKC,0.00,WeatherDisplay:10.37,2013-04-03 00:01:00,
2013-04-02 20:06:00,37.1,17.2,30.03,NNE,20,13.8,13.8,44,0.00,CLR,SKC,0.00,WeatherDisplay:10.37,2013-04-03 00:06:00,
2013-04-02 20:11:00,36.9,17.5,30.03,NE,40,5.0,5.0,45,0.00,CLR,SKC,0.00,WeatherDisplay:10.37,2013-04-03 00:11:00,
2013-04-02 20:16:00,36.8,16.9,30.04,North,5,9.2,9.2,44,0.00,CLR,SKC,0.00,WeatherDisplay:10.37,2013-04-03 00:16:00,
2013-04-02 20:21:00,36.6,17.2,30.04,NE,41,7.0,7.0,45,0.00,CLR,SKC,0.00,WeatherDisplay:10.37,2013-04-03 00:21:00,
2013-04-02 20:26:00,36.4,17.6,30.04,North,355,4.6,4.6,46,0.00,CLR,SKC,0.00,WeatherDisplay:10.37,2013-04-03 00:26:00,
2013-04-02 20:31:00,36.3,18.0,30.04,North,11,3.4,3.4,47,0.00,CLR,SKC,0.00,WeatherDisplay:10.37,2013-04-03 00:31:00,
2013-04-02 20:36:00,36.2,17.9,30.04,SE,138,8.1,8.1,47,0.00,CLR,SKC,0.00,WeatherDisplay:10.37,2013-04-03 00:36:00,
2013-04-02 20:41:00,36.1,17.3,30.05,NNE,24,3.4,3.4,46,0.00,CLR,SKC,0.00,WeatherDisplay:10.37,2013-04-03 00:41:00,
2013-04-02 20:46:00,36.0,17.7,30.05,North,355,5.8,5.8,47,0.00,CLR,SKC,0.00,WeatherDisplay:10.37,2013-04-03 00:46:00,
2013-04-02 20:51:00,35.9,17.6,30.05,NE,48,5.0,5.0,47,0.00,CLR,SKC,0.00,WeatherDisplay:10.37,2013-04-03 00:51:00,
2013-04-02 20:56:00,35.8,18.0,30.05,NE,42,3.4,3.4,48,0.00,CLR,SKC,0.00,WeatherDisplay:10.37,2013-04-03 00:56:00,
2013-04-02 21:01:00,35.7,17.9,30.06,NE,42,2.3,2.3,48,0.00,CLR,SKC,0.00,WeatherDisplay:10.37,2013-04-03 01:01:00,
2013-04-02 21:06:00,35.6,18.3,30.06,NE,42,2.3,2.3,49,0.00,CLR,SKC,0.00,WeatherDisplay:10.37,2013-04-03 01:06:00,
2013-04-02 21:11:00,35.3,18.5,30.06,NE,42,4.0,4.0,50,0.00,CLR,SKC,0.00,WeatherDisplay:10.37,2013-04-03 01:11:00,
2013-04-02 21:16:00,35.2,18.4,30.06,NNW,348,0.0,0.0,50,0.00,CLR,SKC,0.00,WeatherDisplay:10.37,2013-04-03 01:16:00,
2013-04-02 21:21:00,35.2,18.9,30.06,NE,34,1.1,1.1,51,0.00,CLR,SKC,0.00,WeatherDisplay:10.37,2013-04-03 01:21:00,
2013-04-02 21:26:00,35.0,18.2,30.07,NNE,31,4.6,4.6,50,0.00,CLR,SKC,0.00,WeatherDisplay:10.37,2013-04-03 01:26:00,
2013-04-02 21:31:00,35.0,18.7,30.07,North,5,1.1,1.1,51,0.00,CLR,SKC,0.00,WeatherDisplay:10.37,2013-04-03 01:31:00,
2013-04-02 21:36:00,34.8,18.5,30.07,North,5,0.0,0.0,51,0.00,CLR,SKC,0.00,WeatherDisplay:10.37,2013-04-03 01:36:00,
2013-04-02 21:41:00,34.5,18.2,30.07,North,5,1.1,0.0,51,0.00,CLR,SKC,0.00,WeatherDisplay:10.37,2013-04-03 01:41:00,
2013-04-02 21:46:00,34.4,17.2,30.07,NNE,33,9.2,9.2,49,0.00,CLR,SKC,0.00,WeatherDisplay:10.37,2013-04-03 01:46:00,
2013-04-02 21:51:00,34.8,16.6,30.07,NNE,29,4.0,4.0,47,0.00,CLR,SKC,0.00,WeatherDisplay:10.37,2013-04-03 01:51:00,
2013-04-02 21:56:00,34.9,16.2,30.08,NNE,19,5.8,5.8,46,0.00,CLR,SKC,0.00,WeatherDisplay:10.37,2013-04-03 01:56:00,
2013-04-02 22:01:00,34.8,15.6,30.08,NNE,12,3.4,3.4,45,0.00,CLR,SKC,0.00,WeatherDisplay:10.37,2013-04-03 02:01:00,
2013-04-02 22:06:00,34.7,15.5,30.08,NE,50,0.0,0.0,45,0.00,CLR,SKC,0.00,WeatherDisplay:10.37,2013-04-03 02:06:00,
2013-04-02 22:11:00,34.5,15.8,30.08,NE,50,1.1,0.0,46,0.00,CLR,SKC,0.00,WeatherDisplay:10.37,2013-04-03 02:11:00,
2013-04-02 22:16:00,34.3,15.6,30.08,NE,50,1.1,0.0,46,0.00,CLR,SKC,0.00,WeatherDisplay:10.37,2013-04-03 02:16:00,
2013-04-02 22:21:00,34.0,15.9,30.08,NE,50,2.0,2.0,47,0.00,CLR,SKC,0.00,WeatherDisplay:10.37,2013-04-03 02:21:00,
2013-04-02 22:26:00,33.7,15.6,30.08,NE,50,1.0,1.0,47,0.00,CLR,SKC,0.00,WeatherDisplay:10.37,2013-04-03 02:26:00,
2013-04-02 22:31:00,33.6,15.0,30.08,NNE,29,4.6,4.6,46,0.00,CLR,SKC,0.00,WeatherDisplay:10.37,2013-04-03 02:31:00,
2013-04-02 22:36:00,33.5,14.4,30.09,NE,46,4.6,4.6,45,0.00,CLR,SKC,0.00,WeatherDisplay:10.37,2013-04-03 02:36:00,
2013-04-02 22:41:00,33.5,14.9,30.09,NE,39,3.4,3.4,46,0.00,CLR,SKC,0.00,WeatherDisplay:10.37,2013-04-03 02:41:00,
2013-04-02 22:46:00,33.4,14.8,30.09,NE,39,3.4,3.4,46,0.00,CLR,SKC,0.00,WeatherDisplay:10.37,2013-04-03 02:46:00,
2013-04-02 22:51:00,33.3,14.7,30.09,NE,38,1.1,1.1,46,0.00,CLR,SKC,0.00,WeatherDisplay:10.37,2013-04-03 02:51:00,
2013-04-02 22:56:00,33.3,14.2,30.09,NNE,26,4.6,4.6,45,0.00,CLR,SKC,0.00,WeatherDisplay:10.37,2013-04-03 02:56:00,
2013-04-02 23:01:00,33.3,14.7,30.09,NNW,345,0.0,0.0,46,0.00,CLR,SKC,0.00,WeatherDisplay:10.37,2013-04-03 03:01:00,
2013-04-02 23:06:00,33.2,14.1,30.09,NNW,345,1.1,0.0,45,0.00,CLR,SKC,0.00,WeatherDisplay:10.37,2013-04-03 03:06:00,
2013-04-02 23:11:00,33.0,14.4,30.09,NNE,13,3.0,3.0,46,0.00,CLR,SKC,0.00,WeatherDisplay:10.37,2013-04-03 03:11:00,
2013-04-02 23:16:00,32.8,14.3,30.09,NE,40,2.3,2.3,46,0.00,CLR,SKC,0.00,WeatherDisplay:10.37,2013-04-03 03:16:00,
2013-04-02 23:21:00,32.5,14.5,30.09,NNE,17,2.3,2.3,47,0.00,CLR,SKC,0.00,WeatherDisplay:10.37,2013-04-03 03:21:00,
2013-04-02 23:26:00,32.6,13.6,30.09,NNE,22,3.4,3.4,45,0.00,CLR,SKC,0.00,WeatherDisplay:10.37,2013-04-03 03:26:00,
2013-04-02 23:31:00,32.7,13.7,30.09,NNE,22,0.0,0.0,45,0.00,CLR,SKC,0.00,WeatherDisplay:10.37,2013-04-03 03:31:00,
2013-04-02 23:36:00,32.6,14.1,30.09,NNE,22,0.0,0.0,46,0.00,CLR,SKC,0.00,WeatherDisplay:10.37,2013-04-03 03:36:00,
2013-04-02 23:41:00,32.3,13.8,30.09,NNE,22,3.4,3.4,46,0.00,CLR,SKC,0.00,WeatherDisplay:10.37,2013-04-03 03:41:00,
2013-04-02 23:46:00,32.1,13.6,30.09,NNE,22,1.1,1.1,46,0.00,CLR,SKC,0.00,WeatherDisplay:10.37,2013-04-03 03:46:00,
2013-04-02 23:51:00,32.0,14.0,30.09,NNE,22,0.0,0.0,47,0.00,CLR,SKC,0.00,WeatherDisplay:10.37,2013-04-03 03:51:00,
2013-04-02 23:56:00,31.7,13.7,30.09,NNE,22,0.0,0.0,47,0.00,CLR,SKC,0.00,WeatherDisplay:10.37,2013-04-03 03:56:00,